sat.trackr.live / text

‹ back to catalog

STARLINK-6180

NORAD 56887 · 2023-083M

PAYLOAD ACTIVE UNKNOWN

§ Identity

Operator
Country
US
Launch date
2023-06-12
Launch site
AFETR
Launch vehicle
Mass (kg)
RCS (m²)

Purposes: comms

External: N2YO · Heavens-Above · Gunter

§ Orbital elements

Epoch: 2026-09-19T21:30:41.698080Z

Period
94.27 min
Inclination
43.0030°
Eccentricity
0.0001279
Mean motion
15.27575004 rev/d
Perigee alt
482.2 km
Apogee alt
483.9 km
Semi-major
6,861.2 km
B*
1.1035e-5
RAAN
72.5251°
Arg perigee
254.5214°
Mean anomaly
105.5496°
Rev number
18,128

§ Raw data

STARLINK-61801 56887U 23083M   26262.89631595  .00000042  00000+0  11035-4 0  99932 56887  43.0030  72.5251 0001279 254.5214 105.5496 15.27575004181286

JSON: /api/v1/satellites/56887 · /tle

For live sub-satellite position, see the globe view (requires WebGL).

§ Visibility from observer

Set your observer location to see the next 7 days of passes ≥ 10°. The values pass through the URL so the page stays shareable.

No JS? Fill the form by hand. The geolocation button needs JavaScript.